sat.trackr.live / text

‹ back to catalog

STARLINK-31177

NORAD 58873 · 2024-019W

PAYLOAD ACTIVE UNKNOWN

§ Identity

Operator
Country
US
Launch date
2024-01-29
Launch site
AFETR
Launch vehicle
Mass (kg)
RCS (m²)

Purposes: comms

External: N2YO · Heavens-Above · Gunter

§ Orbital elements

Epoch: 2026-05-24T14:10:55.668576Z

Period
94.27 min
Inclination
42.9995°
Eccentricity
0.0001624
Mean motion
15.27579925 rev/d
Perigee alt
481.9 km
Apogee alt
484.2 km
Semi-major
6,861.2 km
B*
2.4683e-4
RAAN
179.9980°
Arg perigee
275.4678°
Mean anomaly
84.5988°
Rev number
13,069

§ Raw data

STARLINK-311771 58873U 24019W   26144.59092209  .00006536  00000+0  24683-3 0  99952 58873  42.9995 179.9980 0001624 275.4678  84.5988 15.27579925130699

JSON: /api/v1/satellites/58873 · /tle

For live sub-satellite position, see the globe view (requires WebGL).

§ Visibility from observer

Set your observer location to see the next 7 days of passes ≥ 10°. The values pass through the URL so the page stays shareable.

No JS? Fill the form by hand. The geolocation button needs JavaScript.